Year,Month,Day,Hour,Minute,Value (Times are PST for temperature in C)
2011,12,02,00,00,3.80
2011,12,02,00,01,3.80
2011,12,02,00,02,3.80
2011,12,02,00,03,3.80
2011,12,02,00,04,3.80
2011,12,02,00,05,3.80
2011,12,02,00,06,3.80
2011,12,02,00,07,3.80
2011,12,02,00,08,3.80
2011,12,02,00,09,3.80
2011,12,02,00,10,3.80
2011,12,02,00,11,3.80
2011,12,02,00,12,3.80
2011,12,02,00,13,3.80
2011,12,02,00,14,3.80
2011,12,02,00,15,3.80
2011,12,02,00,16,3.80
2011,12,02,00,17,3.80
2011,12,02,00,18,3.90
2011,12,02,00,19,3.90
2011,12,02,00,20,3.90
2011,12,02,00,21,3.90
2011,12,02,00,22,3.90
2011,12,02,00,23,3.90
2011,12,02,00,24,3.90
2011,12,02,00,25,3.90
2011,12,02,00,26,3.90
2011,12,02,00,27,3.90
2011,12,02,00,28,3.90
2011,12,02,00,29,3.90
2011,12,02,00,30,3.90
2011,12,02,00,31,3.90
2011,12,02,00,32,3.80
2011,12,02,00,33,3.80
2011,12,02,00,34,3.90
2011,12,02,00,35,3.80
2011,12,02,00,36,3.90
2011,12,02,00,37,3.80
2011,12,02,00,38,3.80
2011,12,02,00,39,3.80
2011,12,02,00,40,3.90
2011,12,02,00,41,3.90
2011,12,02,00,42,3.90
2011,12,02,00,43,3.90
2011,12,02,00,44,3.90
2011,12,02,00,45,3.80
2011,12,02,00,46,3.80
2011,12,02,00,47,3.80
2011,12,02,00,48,3.80
2011,12,02,00,49,3.80
2011,12,02,00,50,3.80
2011,12,02,00,51,3.80
2011,12,02,00,52,3.80
2011,12,02,00,53,3.80
2011,12,02,00,54,3.80
2011,12,02,00,55,3.80
2011,12,02,00,56,3.80
2011,12,02,00,57,3.80
2011,12,02,00,58,3.80
2011,12,02,00,59,3.80
2011,12,02,01,00,3.80
2011,12,02,01,01,3.70
2011,12,02,01,02,3.70
2011,12,02,01,03,3.70
2011,12,02,01,04,3.60
2011,12,02,01,05,3.60
2011,12,02,01,06,3.50
2011,12,02,01,07,3.50
2011,12,02,01,08,3.40
2011,12,02,01,09,3.40
2011,12,02,01,10,3.40
2011,12,02,01,11,3.40
2011,12,02,01,12,3.40
2011,12,02,01,13,3.40
2011,12,02,01,14,3.40
2011,12,02,01,15,3.30
2011,12,02,01,16,3.30
2011,12,02,01,17,3.30
2011,12,02,01,18,3.30
2011,12,02,01,19,3.30
2011,12,02,01,20,3.30
2011,12,02,01,21,3.30
2011,12,02,01,22,3.30
2011,12,02,01,23,3.30
2011,12,02,01,24,3.30
2011,12,02,01,25,3.30
2011,12,02,01,26,3.30
2011,12,02,01,27,3.30
2011,12,02,01,28,3.30
2011,12,02,01,29,3.30
2011,12,02,01,30,3.30
2011,12,02,01,31,3.20
2011,12,02,01,32,3.20
2011,12,02,01,33,3.10
2011,12,02,01,34,3.10
2011,12,02,01,35,3.10
2011,12,02,01,36,3.00
2011,12,02,01,37,3.00
2011,12,02,01,38,2.90
2011,12,02,01,39,2.90
2011,12,02,01,40,2.90
2011,12,02,01,41,2.90
2011,12,02,01,42,2.90
2011,12,02,01,43,2.90
2011,12,02,01,44,2.90
2011,12,02,01,45,2.90
2011,12,02,01,46,2.90
2011,12,02,01,47,2.90
2011,12,02,01,48,2.90
2011,12,02,01,49,2.80
2011,12,02,01,50,2.80
2011,12,02,01,51,2.80
2011,12,02,01,52,2.80
2011,12,02,01,53,2.80
2011,12,02,01,54,2.80
2011,12,02,01,55,2.80
2011,12,02,01,56,2.70
2011,12,02,01,57,2.70
2011,12,02,01,58,2.70
2011,12,02,01,59,2.70
2011,12,02,02,00,2.70
2011,12,02,02,01,2.70
2011,12,02,02,02,2.70
2011,12,02,02,03,2.70
2011,12,02,02,04,2.70
2011,12,02,02,05,2.70
2011,12,02,02,06,2.70
2011,12,02,02,07,2.70
2011,12,02,02,08,2.70
2011,12,02,02,09,2.70
2011,12,02,02,10,2.70
2011,12,02,02,11,2.60
2011,12,02,02,12,2.70
2011,12,02,02,13,2.60
2011,12,02,02,14,2.60
2011,12,02,02,15,2.60
2011,12,02,02,16,2.60
2011,12,02,02,17,2.60
2011,12,02,02,18,2.60
2011,12,02,02,19,2.50
2011,12,02,02,20,2.50
2011,12,02,02,21,2.50
2011,12,02,02,22,2.40
2011,12,02,02,23,2.40
2011,12,02,02,24,2.40
2011,12,02,02,25,2.40
2011,12,02,02,26,2.40
2011,12,02,02,27,2.40
2011,12,02,02,28,2.40
2011,12,02,02,29,2.40
2011,12,02,02,30,2.40
2011,12,02,02,31,2.40
2011,12,02,02,32,2.40
2011,12,02,02,33,2.40
2011,12,02,02,34,2.40
2011,12,02,02,35,2.40
2011,12,02,02,36,2.40
2011,12,02,02,37,2.30
2011,12,02,02,38,2.30
2011,12,02,02,39,2.30
2011,12,02,02,40,2.30
2011,12,02,02,41,2.30
2011,12,02,02,42,2.30
2011,12,02,02,43,2.20
2011,12,02,02,44,2.30
2011,12,02,02,45,2.30
2011,12,02,02,46,2.30
2011,12,02,02,47,2.30
2011,12,02,02,48,2.30
2011,12,02,02,49,2.20
2011,12,02,02,50,2.20
2011,12,02,02,51,2.20
2011,12,02,02,52,2.20
2011,12,02,02,53,2.10
2011,12,02,02,54,2.00
2011,12,02,02,55,2.00
2011,12,02,02,56,2.00
2011,12,02,02,57,2.00
2011,12,02,02,58,2.00
2011,12,02,02,59,2.00
2011,12,02,03,00,2.00
2011,12,02,03,01,1.90
2011,12,02,03,02,1.90
2011,12,02,03,03,1.90
2011,12,02,03,04,1.90
2011,12,02,03,05,1.90
2011,12,02,03,06,2.00
2011,12,02,03,07,2.00
2011,12,02,03,08,1.90
2011,12,02,03,09,1.90
2011,12,02,03,10,1.90
2011,12,02,03,11,1.90
2011,12,02,03,12,1.90
2011,12,02,03,13,1.90
2011,12,02,03,14,1.80
2011,12,02,03,15,1.80
2011,12,02,03,16,1.80
2011,12,02,03,17,1.80
2011,12,02,03,18,1.80
2011,12,02,03,19,1.80
2011,12,02,03,20,1.80
2011,12,02,03,21,1.80
2011,12,02,03,22,1.80
2011,12,02,03,23,1.80
2011,12,02,03,24,1.70
2011,12,02,03,25,1.70
2011,12,02,03,26,1.70
2011,12,02,03,27,1.70
2011,12,02,03,28,1.70
2011,12,02,03,29,1.70
2011,12,02,03,30,1.60
2011,12,02,03,31,1.60
2011,12,02,03,32,1.60
2011,12,02,03,33,1.60
2011,12,02,03,34,1.70
2011,12,02,03,35,1.70
2011,12,02,03,36,1.70
2011,12,02,03,37,1.70
2011,12,02,03,38,1.70
2011,12,02,03,39,1.70
2011,12,02,03,40,1.70
2011,12,02,03,41,1.70
2011,12,02,03,42,1.70
2011,12,02,03,43,1.70
2011,12,02,03,44,1.70
2011,12,02,03,45,1.70
2011,12,02,03,46,1.60
2011,12,02,03,47,1.70
2011,12,02,03,48,1.70
2011,12,02,03,49,1.70
2011,12,02,03,50,1.70
2011,12,02,03,51,1.70
2011,12,02,03,52,1.70
2011,12,02,03,53,1.70
2011,12,02,03,54,1.70
2011,12,02,03,55,1.60
2011,12,02,03,56,1.60
2011,12,02,03,57,1.60
2011,12,02,03,58,1.60
2011,12,02,03,59,1.60
2011,12,02,04,00,1.60
2011,12,02,04,01,1.60
2011,12,02,04,02,1.60
2011,12,02,04,03,1.60
2011,12,02,04,04,1.70
2011,12,02,04,05,1.70
2011,12,02,04,06,1.70
2011,12,02,04,07,1.60
2011,12,02,04,08,1.60
2011,12,02,04,09,1.60
2011,12,02,04,10,1.60
2011,12,02,04,11,1.60
2011,12,02,04,12,1.60
2011,12,02,04,13,1.60
2011,12,02,04,14,1.50
2011,12,02,04,15,1.50
2011,12,02,04,16,1.50
2011,12,02,04,17,1.50
2011,12,02,04,18,1.50
2011,12,02,04,19,1.40
2011,12,02,04,20,1.40
2011,12,02,04,21,1.40
2011,12,02,04,22,1.40
2011,12,02,04,23,1.40
2011,12,02,04,24,1.40
2011,12,02,04,25,1.40
2011,12,02,04,26,1.40
2011,12,02,04,27,1.40
2011,12,02,04,28,1.30
2011,12,02,04,29,1.30
2011,12,02,04,30,1.30
2011,12,02,04,31,1.30
2011,12,02,04,32,1.30
2011,12,02,04,33,1.30
2011,12,02,04,34,1.30
2011,12,02,04,35,1.30
2011,12,02,04,36,1.20
2011,12,02,04,37,1.20
2011,12,02,04,38,1.20
2011,12,02,04,39,1.20
2011,12,02,04,40,1.30
2011,12,02,04,41,1.30
2011,12,02,04,42,1.30
2011,12,02,04,43,1.30
2011,12,02,04,44,1.30
2011,12,02,04,45,1.30
2011,12,02,04,46,1.30
2011,12,02,04,47,1.30
2011,12,02,04,48,1.30
2011,12,02,04,49,1.30
2011,12,02,04,50,1.20
2011,12,02,04,51,1.20
2011,12,02,04,52,1.20
2011,12,02,04,53,1.10
2011,12,02,04,54,1.10
2011,12,02,04,55,1.10
2011,12,02,04,56,1.10
2011,12,02,04,57,1.10
2011,12,02,04,58,1.00
2011,12,02,04,59,1.00
2011,12,02,05,00,0.90
2011,12,02,05,01,0.90
2011,12,02,05,02,1.00
2011,12,02,05,03,1.00
2011,12,02,05,04,1.00
2011,12,02,05,05,1.00
2011,12,02,05,06,1.00
2011,12,02,05,07,1.00
2011,12,02,05,08,1.00
2011,12,02,05,09,1.00
2011,12,02,05,10,0.90
2011,12,02,05,11,0.90
2011,12,02,05,12,0.80
2011,12,02,05,13,0.80
2011,12,02,05,14,0.80
2011,12,02,05,15,0.90
2011,12,02,05,16,0.90
2011,12,02,05,17,0.90
2011,12,02,05,18,0.90
2011,12,02,05,19,0.90
2011,12,02,05,20,0.90
2011,12,02,05,21,0.90
2011,12,02,05,22,0.90
2011,12,02,05,23,0.90
2011,12,02,05,24,0.90
2011,12,02,05,25,0.90
2011,12,02,05,26,0.90
2011,12,02,05,27,0.90
2011,12,02,05,28,0.90
2011,12,02,05,29,0.90
2011,12,02,05,30,0.90
2011,12,02,05,31,0.90
2011,12,02,05,32,0.90
2011,12,02,05,33,0.90
2011,12,02,05,34,0.90
2011,12,02,05,35,0.90
2011,12,02,05,36,0.80
2011,12,02,05,37,0.80
2011,12,02,05,38,0.80
2011,12,02,05,39,0.80
2011,12,02,05,40,0.80
2011,12,02,05,41,0.80
2011,12,02,05,42,0.80
2011,12,02,05,43,0.80
2011,12,02,05,44,0.80
2011,12,02,05,45,0.80
2011,12,02,05,46,0.80
2011,12,02,05,47,0.80
2011,12,02,05,48,0.80
2011,12,02,05,49,0.80
2011,12,02,05,50,0.80
2011,12,02,05,51,0.80
2011,12,02,05,52,0.80
2011,12,02,05,53,0.80
2011,12,02,05,54,0.80
2011,12,02,05,55,0.80
2011,12,02,05,56,0.80
2011,12,02,05,57,0.80
2011,12,02,05,58,0.80
2011,12,02,05,59,0.80
2011,12,02,06,00,0.80
2011,12,02,06,01,0.80
2011,12,02,06,02,0.80
2011,12,02,06,03,0.80
2011,12,02,06,04,0.70
2011,12,02,06,05,0.70
2011,12,02,06,06,0.70
2011,12,02,06,07,0.70
2011,12,02,06,08,0.70
2011,12,02,06,09,0.70
2011,12,02,06,10,0.70
2011,12,02,06,11,0.70
2011,12,02,06,12,0.60
2011,12,02,06,13,0.60
2011,12,02,06,14,0.60
2011,12,02,06,15,0.70
2011,12,02,06,16,0.70
2011,12,02,06,17,0.70
2011,12,02,06,18,0.80
2011,12,02,06,19,0.80
2011,12,02,06,20,0.80
2011,12,02,06,21,0.80
2011,12,02,06,22,0.80
2011,12,02,06,23,0.80
2011,12,02,06,24,0.80
2011,12,02,06,25,0.80
2011,12,02,06,26,0.90
2011,12,02,06,27,0.90
2011,12,02,06,28,1.00
2011,12,02,06,29,1.00
2011,12,02,06,30,1.00
2011,12,02,06,31,0.90
2011,12,02,06,32,0.90
2011,12,02,06,33,0.90
2011,12,02,06,34,0.90
2011,12,02,06,35,0.80
2011,12,02,06,36,0.80
2011,12,02,06,37,0.80
2011,12,02,06,38,0.90
2011,12,02,06,39,0.90
2011,12,02,06,40,0.90
2011,12,02,06,41,0.90
2011,12,02,06,42,0.90
2011,12,02,06,43,0.80
2011,12,02,06,44,0.80
2011,12,02,06,45,0.70
2011,12,02,06,46,0.70
2011,12,02,06,47,0.70
2011,12,02,06,48,0.70
2011,12,02,06,49,0.70
2011,12,02,06,50,0.70
2011,12,02,06,51,0.70
2011,12,02,06,52,0.70
2011,12,02,06,53,0.70
2011,12,02,06,54,0.70
2011,12,02,06,55,0.70
2011,12,02,06,56,0.70
2011,12,02,06,57,0.70
2011,12,02,06,58,0.70
2011,12,02,06,59,0.70
2011,12,02,07,00,0.60
2011,12,02,07,01,0.60
2011,12,02,07,02,0.60
2011,12,02,07,03,0.60
2011,12,02,07,04,0.60
2011,12,02,07,05,0.50
2011,12,02,07,06,0.50
2011,12,02,07,07,0.50
2011,12,02,07,08,0.50
2011,12,02,07,09,0.50
2011,12,02,07,10,0.50
2011,12,02,07,11,0.60
2011,12,02,07,12,0.50
2011,12,02,07,13,0.50
2011,12,02,07,14,0.50
2011,12,02,07,15,0.50
2011,12,02,07,16,0.50
2011,12,02,07,17,0.50
2011,12,02,07,18,0.50
2011,12,02,07,19,0.50
2011,12,02,07,20,0.50
2011,12,02,07,21,0.50
2011,12,02,07,22,0.60
2011,12,02,07,23,0.60
2011,12,02,07,24,0.60
2011,12,02,07,25,0.60
2011,12,02,07,26,0.60
2011,12,02,07,27,0.60
2011,12,02,07,28,0.60
2011,12,02,07,29,0.60
2011,12,02,07,30,0.50
2011,12,02,07,31,0.50
2011,12,02,07,32,0.50
2011,12,02,07,33,0.60
2011,12,02,07,34,0.60
2011,12,02,07,35,0.60
2011,12,02,07,36,0.60
2011,12,02,07,37,0.70
2011,12,02,07,38,0.70
2011,12,02,07,39,0.60
2011,12,02,07,40,0.60
2011,12,02,07,41,0.60
2011,12,02,07,42,0.60
2011,12,02,07,43,0.60
2011,12,02,07,44,0.60
2011,12,02,07,45,0.60
2011,12,02,07,46,0.60
2011,12,02,07,47,0.60
2011,12,02,07,48,0.60
2011,12,02,07,49,0.60
2011,12,02,07,50,0.60
2011,12,02,07,51,0.60
2011,12,02,07,52,0.60
2011,12,02,07,53,0.60
2011,12,02,07,54,0.60
2011,12,02,07,55,0.60
2011,12,02,07,56,0.70
2011,12,02,07,57,0.70
2011,12,02,07,58,0.70
2011,12,02,07,59,0.70
2011,12,02,08,00,0.60
2011,12,02,08,01,0.60
2011,12,02,08,02,0.50
2011,12,02,08,03,0.50
2011,12,02,08,04,0.50
2011,12,02,08,05,0.50
2011,12,02,08,06,0.50
2011,12,02,08,07,0.50
2011,12,02,08,08,0.50
2011,12,02,08,09,0.50
2011,12,02,08,10,0.50
2011,12,02,08,11,0.40
2011,12,02,08,12,0.40
2011,12,02,08,13,0.50
2011,12,02,08,14,0.50
2011,12,02,08,15,0.50
2011,12,02,08,16,0.50
2011,12,02,08,17,0.50
2011,12,02,08,18,0.50
2011,12,02,08,19,0.50
2011,12,02,08,20,0.50
2011,12,02,08,21,0.50
2011,12,02,08,22,0.60
2011,12,02,08,23,0.60
2011,12,02,08,24,0.60
2011,12,02,08,25,0.60
2011,12,02,08,26,0.60
2011,12,02,08,27,0.60
2011,12,02,08,28,0.60
2011,12,02,08,29,0.60
2011,12,02,08,30,0.60
2011,12,02,08,31,0.60
2011,12,02,08,32,0.60
2011,12,02,08,33,0.60
2011,12,02,08,34,0.60
2011,12,02,08,35,0.60
2011,12,02,08,36,0.60
2011,12,02,08,37,0.60
2011,12,02,08,38,0.60
2011,12,02,08,39,0.60
2011,12,02,08,40,0.60
2011,12,02,08,41,0.60
2011,12,02,08,42,0.60
2011,12,02,08,43,0.60
2011,12,02,08,44,0.60
2011,12,02,08,45,0.60
2011,12,02,08,46,0.60
2011,12,02,08,47,0.60
2011,12,02,08,48,0.60
2011,12,02,08,49,0.60
2011,12,02,08,50,0.50
2011,12,02,08,51,0.60
2011,12,02,08,52,0.60
2011,12,02,08,53,0.60
2011,12,02,08,54,0.60
2011,12,02,08,55,0.70
2011,12,02,08,56,0.70
2011,12,02,08,57,0.60
2011,12,02,08,58,0.60
2011,12,02,08,59,0.60
2011,12,02,09,00,0.60
2011,12,02,09,01,0.60
2011,12,02,09,02,0.60
2011,12,02,09,03,0.70
2011,12,02,09,04,0.70
2011,12,02,09,05,0.70
2011,12,02,09,06,0.80
2011,12,02,09,07,0.80
2011,12,02,09,08,0.90
2011,12,02,09,09,0.90
2011,12,02,09,10,0.90
2011,12,02,09,11,0.90
2011,12,02,09,12,1.00
2011,12,02,09,13,1.10
2011,12,02,09,14,1.10
2011,12,02,09,15,1.10
2011,12,02,09,16,1.10
2011,12,02,09,17,1.10
2011,12,02,09,18,1.10
2011,12,02,09,19,1.10
2011,12,02,09,20,1.10
2011,12,02,09,21,1.10
2011,12,02,09,22,1.20
2011,12,02,09,23,1.20
2011,12,02,09,24,1.20
2011,12,02,09,25,1.20
2011,12,02,09,26,1.20
2011,12,02,09,27,1.30
2011,12,02,09,28,1.30
2011,12,02,09,29,1.30
2011,12,02,09,30,1.30
2011,12,02,09,31,1.40
2011,12,02,09,32,1.40
2011,12,02,09,33,1.50
2011,12,02,09,34,1.60
2011,12,02,09,35,1.60
2011,12,02,09,36,1.60
2011,12,02,09,37,1.60
2011,12,02,09,38,1.70
2011,12,02,09,39,1.60
2011,12,02,09,40,1.70
2011,12,02,09,41,1.70
2011,12,02,09,42,1.70
2011,12,02,09,43,1.80
2011,12,02,09,44,1.80
2011,12,02,09,45,1.80
2011,12,02,09,46,1.80
2011,12,02,09,47,1.80
2011,12,02,09,48,1.80
2011,12,02,09,49,1.80
2011,12,02,09,50,1.90
2011,12,02,09,51,1.90
2011,12,02,09,52,1.90
2011,12,02,09,53,1.90
2011,12,02,09,54,1.90
2011,12,02,09,55,1.90
2011,12,02,09,56,1.90
2011,12,02,09,57,1.90
2011,12,02,09,58,2.00
2011,12,02,09,59,2.00
2011,12,02,10,00,2.00
2011,12,02,10,01,2.00
2011,12,02,10,02,2.10
2011,12,02,10,03,2.10
2011,12,02,10,04,2.10
2011,12,02,10,05,2.20
2011,12,02,10,06,2.20
2011,12,02,10,07,2.20
2011,12,02,10,08,2.20
2011,12,02,10,09,2.20
2011,12,02,10,10,2.20
2011,12,02,10,11,2.20
2011,12,02,10,12,2.20
2011,12,02,10,13,2.30
2011,12,02,10,14,2.30
2011,12,02,10,15,2.30
2011,12,02,10,16,2.40
2011,12,02,10,17,2.50
2011,12,02,10,18,2.50
2011,12,02,10,19,2.60
2011,12,02,10,20,2.60
2011,12,02,10,21,2.60
2011,12,02,10,22,2.70
2011,12,02,10,23,2.70
2011,12,02,10,24,2.70
2011,12,02,10,25,2.80
2011,12,02,10,26,2.80
2011,12,02,10,27,2.80
2011,12,02,10,28,2.80
2011,12,02,10,29,2.80
2011,12,02,10,30,2.80
2011,12,02,10,31,2.80
2011,12,02,10,32,2.80
2011,12,02,10,33,2.90
2011,12,02,10,34,2.90
2011,12,02,10,35,3.00
2011,12,02,10,36,3.00
2011,12,02,10,37,3.10
2011,12,02,10,38,3.10
2011,12,02,10,39,3.10
2011,12,02,10,40,3.10
2011,12,02,10,41,3.10
2011,12,02,10,42,3.10
2011,12,02,10,43,3.10
2011,12,02,10,44,3.20
2011,12,02,10,45,3.20
2011,12,02,10,46,3.20
2011,12,02,10,47,3.20
2011,12,02,10,48,3.20
2011,12,02,10,49,3.30
2011,12,02,10,50,3.30
2011,12,02,10,51,3.40
2011,12,02,10,52,3.50
2011,12,02,10,53,3.50
2011,12,02,10,54,3.60
2011,12,02,10,55,3.60
2011,12,02,10,56,3.60
2011,12,02,10,57,3.60
2011,12,02,10,58,3.70
2011,12,02,10,59,3.70
2011,12,02,11,00,3.80
2011,12,02,11,01,3.80
2011,12,02,11,02,3.90
2011,12,02,11,03,3.90
2011,12,02,11,04,3.90
2011,12,02,11,05,4.00
2011,12,02,11,06,4.00
2011,12,02,11,07,4.00
2011,12,02,11,08,4.10
2011,12,02,11,09,4.20
2011,12,02,11,10,4.30
2011,12,02,11,11,4.40
2011,12,02,11,12,4.40
2011,12,02,11,13,4.50
2011,12,02,11,14,4.50
2011,12,02,11,15,4.60
2011,12,02,11,16,4.70
2011,12,02,11,17,4.70
2011,12,02,11,18,4.60
2011,12,02,11,19,4.60
2011,12,02,11,20,4.70
2011,12,02,11,21,4.70
2011,12,02,11,22,4.70
2011,12,02,11,23,4.60
2011,12,02,11,24,4.60
2011,12,02,11,25,4.60
2011,12,02,11,26,4.60
2011,12,02,11,27,4.60
2011,12,02,11,28,4.60
2011,12,02,11,29,4.60
2011,12,02,11,30,4.60
2011,12,02,11,31,4.70
2011,12,02,11,32,4.70
2011,12,02,11,33,4.80
2011,12,02,11,34,4.80
2011,12,02,11,35,4.80
2011,12,02,11,36,4.90
2011,12,02,11,37,4.90
2011,12,02,11,38,4.90
2011,12,02,11,39,5.00
2011,12,02,11,40,5.00
2011,12,02,11,41,5.10
2011,12,02,11,42,5.10
2011,12,02,11,43,5.20
2011,12,02,11,44,5.30
2011,12,02,11,45,5.30
2011,12,02,11,46,5.40
2011,12,02,11,47,5.40
2011,12,02,11,48,5.50
2011,12,02,11,49,5.50
2011,12,02,11,50,5.60
2011,12,02,11,51,5.60
2011,12,02,11,52,5.60
2011,12,02,11,53,5.60
2011,12,02,11,54,5.60
2011,12,02,11,55,5.60
2011,12,02,11,56,5.60
2011,12,02,11,57,5.60
2011,12,02,11,58,5.60
2011,12,02,11,59,5.60
2011,12,02,12,00,5.70
2011,12,02,12,01,5.70
2011,12,02,12,02,5.70
2011,12,02,12,03,5.70
2011,12,02,12,04,5.80
2011,12,02,12,05,5.80
2011,12,02,12,06,5.80
2011,12,02,12,07,5.80
2011,12,02,12,08,5.80
2011,12,02,12,09,5.90
2011,12,02,12,10,5.90
2011,12,02,12,11,6.00
2011,12,02,12,12,6.00
2011,12,02,12,13,6.10
2011,12,02,12,14,6.10
2011,12,02,12,15,6.20
2011,12,02,12,16,6.20
2011,12,02,12,17,6.30
2011,12,02,12,18,6.30
2011,12,02,12,19,6.30
2011,12,02,12,20,6.40
2011,12,02,12,21,6.40
2011,12,02,12,22,6.40
2011,12,02,12,23,6.40
2011,12,02,12,24,6.30
2011,12,02,12,25,6.30
2011,12,02,12,26,6.30
2011,12,02,12,27,6.30
2011,12,02,12,28,6.20
2011,12,02,12,29,6.20
2011,12,02,12,30,6.20
2011,12,02,12,31,6.20
2011,12,02,12,32,6.20
2011,12,02,12,33,6.20
2011,12,02,12,34,6.20
2011,12,02,12,35,6.20
2011,12,02,12,36,6.20
2011,12,02,12,37,6.20
2011,12,02,12,38,6.10
2011,12,02,12,39,6.20
2011,12,02,12,40,6.20
2011,12,02,12,41,6.20
2011,12,02,12,42,6.20
2011,12,02,12,43,6.20
2011,12,02,12,44,6.20
2011,12,02,12,45,6.30
2011,12,02,12,46,6.30
2011,12,02,12,47,6.30
2011,12,02,12,48,6.40
2011,12,02,12,49,6.40
2011,12,02,12,50,6.40
2011,12,02,12,51,6.50
2011,12,02,12,52,6.50
2011,12,02,12,53,6.50
2011,12,02,12,54,6.50
2011,12,02,12,55,6.50
2011,12,02,12,56,6.50
2011,12,02,12,57,6.50
2011,12,02,12,58,6.50
2011,12,02,12,59,6.50
2011,12,02,13,00,6.50
2011,12,02,13,01,6.50
2011,12,02,13,02,6.50
2011,12,02,13,03,6.40
2011,12,02,13,04,6.40
2011,12,02,13,05,6.50
2011,12,02,13,06,6.50
2011,12,02,13,07,6.50
2011,12,02,13,08,6.50
2011,12,02,13,09,6.50
2011,12,02,13,10,6.50
2011,12,02,13,11,6.60
2011,12,02,13,12,6.60
2011,12,02,13,13,6.60
2011,12,02,13,14,6.60
2011,12,02,13,15,6.60
2011,12,02,13,16,6.50
2011,12,02,13,17,6.50
2011,12,02,13,18,6.50
2011,12,02,13,19,6.40
2011,12,02,13,20,6.40
2011,12,02,13,21,6.50
2011,12,02,13,22,6.50
2011,12,02,13,23,6.60
2011,12,02,13,24,6.60
2011,12,02,13,25,6.60
2011,12,02,13,26,6.60
2011,12,02,13,27,6.60
2011,12,02,13,28,6.60
2011,12,02,13,29,6.60
2011,12,02,13,30,6.60
2011,12,02,13,31,6.60
2011,12,02,13,32,6.50
2011,12,02,13,33,6.60
2011,12,02,13,34,6.50
2011,12,02,13,35,6.50
2011,12,02,13,36,6.50
2011,12,02,13,37,6.50
2011,12,02,13,38,6.50
2011,12,02,13,39,6.60
2011,12,02,13,40,6.50
2011,12,02,13,41,6.50
2011,12,02,13,42,6.50
2011,12,02,13,43,6.60
2011,12,02,13,44,6.60
2011,12,02,13,45,6.60
2011,12,02,13,46,6.60
2011,12,02,13,47,6.70
2011,12,02,13,48,6.70
2011,12,02,13,49,6.70
2011,12,02,13,50,6.70
2011,12,02,13,51,6.70
2011,12,02,13,52,6.80
2011,12,02,13,53,6.80
2011,12,02,13,54,6.90
2011,12,02,13,55,6.90
2011,12,02,13,56,7.00
2011,12,02,13,57,7.10
2011,12,02,13,58,7.10
2011,12,02,13,59,7.20
2011,12,02,14,00,7.20
2011,12,02,14,01,7.20
2011,12,02,14,02,7.20
2011,12,02,14,03,7.20
2011,12,02,14,04,7.20
2011,12,02,14,05,7.10
2011,12,02,14,06,7.10
2011,12,02,14,07,7.00
2011,12,02,14,08,7.00
2011,12,02,14,09,7.00
2011,12,02,14,10,6.90
2011,12,02,14,11,6.90
2011,12,02,14,12,6.90
2011,12,02,14,13,6.90
2011,12,02,14,14,6.90
2011,12,02,14,15,6.80
2011,12,02,14,16,6.80
2011,12,02,14,17,6.80
2011,12,02,14,18,6.80
2011,12,02,14,19,6.80
2011,12,02,14,20,6.80
2011,12,02,14,21,6.80
2011,12,02,14,22,6.80
2011,12,02,14,23,6.90
2011,12,02,14,24,6.90
2011,12,02,14,25,6.90
2011,12,02,14,26,6.90
2011,12,02,14,27,7.00
2011,12,02,14,28,7.00
2011,12,02,14,29,7.00
2011,12,02,14,30,7.10
2011,12,02,14,31,7.10
2011,12,02,14,32,7.20
2011,12,02,14,33,7.20
2011,12,02,14,34,7.20
2011,12,02,14,35,7.30
2011,12,02,14,36,7.30
2011,12,02,14,37,7.20
2011,12,02,14,38,7.20
2011,12,02,14,39,7.20
2011,12,02,14,40,7.30
2011,12,02,14,41,7.30
2011,12,02,14,42,7.30
2011,12,02,14,43,7.30
2011,12,02,14,44,7.30
2011,12,02,14,45,7.20
2011,12,02,14,46,7.20
2011,12,02,14,47,7.10
2011,12,02,14,48,7.10
2011,12,02,14,49,7.00
2011,12,02,14,50,7.00
2011,12,02,14,51,7.00
2011,12,02,14,52,7.00
2011,12,02,14,53,7.10
2011,12,02,14,54,7.10
2011,12,02,14,55,7.10
2011,12,02,14,56,7.10
2011,12,02,14,57,7.00
2011,12,02,14,58,7.00
2011,12,02,14,59,6.90
2011,12,02,15,00,6.90
2011,12,02,15,01,6.90
2011,12,02,15,02,6.90
2011,12,02,15,03,6.90
2011,12,02,15,04,6.90
2011,12,02,15,05,6.90
2011,12,02,15,06,6.90
2011,12,02,15,07,6.90
2011,12,02,15,08,6.80
2011,12,02,15,09,6.80
2011,12,02,15,10,6.80
2011,12,02,15,11,6.80
2011,12,02,15,12,6.80
2011,12,02,15,13,6.80
2011,12,02,15,14,6.90
2011,12,02,15,15,6.90
2011,12,02,15,16,6.90
2011,12,02,15,17,6.90
2011,12,02,15,18,6.90
2011,12,02,15,19,6.90
2011,12,02,15,20,6.90
2011,12,02,15,21,6.90
2011,12,02,15,22,6.80
2011,12,02,15,23,6.80
2011,12,02,15,24,6.80
2011,12,02,15,25,6.80
2011,12,02,15,26,6.70
2011,12,02,15,27,6.70
2011,12,02,15,28,6.70
2011,12,02,15,29,6.70
2011,12,02,15,30,6.70
2011,12,02,15,31,6.70
2011,12,02,15,32,6.70
2011,12,02,15,33,6.60
2011,12,02,15,34,6.60
2011,12,02,15,35,6.60
2011,12,02,15,36,6.50
2011,12,02,15,37,6.50
2011,12,02,15,38,6.50
2011,12,02,15,39,6.50
2011,12,02,15,40,6.50
2011,12,02,15,41,6.50
2011,12,02,15,42,6.60
2011,12,02,15,43,6.60
2011,12,02,15,44,6.60
2011,12,02,15,45,6.60
2011,12,02,15,46,6.60
2011,12,02,15,47,6.60
2011,12,02,15,48,6.60
2011,12,02,15,49,6.60
2011,12,02,15,50,6.50
2011,12,02,15,51,6.50
2011,12,02,15,52,6.40
2011,12,02,15,53,6.40
2011,12,02,15,54,6.20
2011,12,02,15,55,6.10
2011,12,02,15,56,6.00
2011,12,02,15,57,5.90
2011,12,02,15,58,5.80
2011,12,02,15,59,5.80
2011,12,02,16,00,5.70
2011,12,02,16,01,5.60
2011,12,02,16,02,5.60
2011,12,02,16,03,5.50
2011,12,02,16,04,5.40
2011,12,02,16,05,5.30
2011,12,02,16,06,5.20
2011,12,02,16,07,5.10
2011,12,02,16,08,5.10
2011,12,02,16,09,5.00
2011,12,02,16,10,4.90
2011,12,02,16,11,4.90
2011,12,02,16,12,4.90
2011,12,02,16,13,4.80
2011,12,02,16,14,4.80
2011,12,02,16,15,4.70
2011,12,02,16,16,4.70
2011,12,02,16,17,4.70
2011,12,02,16,18,4.60
2011,12,02,16,19,4.50
2011,12,02,16,20,4.50
2011,12,02,16,21,4.40
2011,12,02,16,22,4.40
2011,12,02,16,23,4.30
2011,12,02,16,24,4.30
2011,12,02,16,25,4.20
2011,12,02,16,26,4.20
2011,12,02,16,27,4.10
2011,12,02,16,28,4.10
2011,12,02,16,29,4.00
2011,12,02,16,30,4.00
2011,12,02,16,31,3.90
2011,12,02,16,32,3.90
2011,12,02,16,33,3.80
2011,12,02,16,34,3.80
2011,12,02,16,35,3.80
2011,12,02,16,36,3.80
2011,12,02,16,37,3.80
2011,12,02,16,38,3.80
2011,12,02,16,39,3.70
2011,12,02,16,40,3.70
2011,12,02,16,41,3.60
2011,12,02,16,42,3.60
2011,12,02,16,43,3.60
2011,12,02,16,44,3.60
2011,12,02,16,45,3.60
2011,12,02,16,46,3.50
2011,12,02,16,47,3.50
2011,12,02,16,48,3.50
2011,12,02,16,49,3.50
2011,12,02,16,50,3.50
2011,12,02,16,51,3.50
2011,12,02,16,52,3.50
2011,12,02,16,53,3.50
2011,12,02,16,54,3.40
2011,12,02,16,55,3.40
2011,12,02,16,56,3.40
2011,12,02,16,57,3.40
2011,12,02,16,58,3.30
2011,12,02,16,59,3.30
2011,12,02,17,00,3.30
2011,12,02,17,01,3.20
2011,12,02,17,02,3.20
2011,12,02,17,03,3.20
2011,12,02,17,04,3.10
2011,12,02,17,05,3.10
2011,12,02,17,06,3.10
2011,12,02,17,07,3.10
2011,12,02,17,08,3.00
2011,12,02,17,09,3.00
2011,12,02,17,10,3.00
2011,12,02,17,11,3.00
2011,12,02,17,12,3.00
2011,12,02,17,13,3.00
2011,12,02,17,14,3.00
2011,12,02,17,15,3.00
2011,12,02,17,16,3.00
2011,12,02,17,17,3.00
2011,12,02,17,18,3.10
2011,12,02,17,19,3.10
2011,12,02,17,20,3.10
2011,12,02,17,21,3.10
2011,12,02,17,22,3.00
2011,12,02,17,23,3.00
2011,12,02,17,24,3.00
2011,12,02,17,25,3.00
2011,12,02,17,26,3.00
2011,12,02,17,27,3.00
2011,12,02,17,28,2.90
2011,12,02,17,29,2.90
2011,12,02,17,30,2.90
2011,12,02,17,31,2.90
2011,12,02,17,32,2.90
2011,12,02,17,33,2.90
2011,12,02,17,34,2.90
2011,12,02,17,35,2.90
2011,12,02,17,36,2.80
2011,12,02,17,37,2.80
2011,12,02,17,38,2.80
2011,12,02,17,39,2.80
2011,12,02,17,40,2.80
2011,12,02,17,41,2.80
2011,12,02,17,42,2.70
2011,12,02,17,43,2.70
2011,12,02,17,44,2.70
2011,12,02,17,45,2.70
2011,12,02,17,46,2.70
2011,12,02,17,47,2.70
2011,12,02,17,48,2.70
2011,12,02,17,49,2.70
2011,12,02,17,50,2.70
2011,12,02,17,51,2.60
2011,12,02,17,52,2.60
2011,12,02,17,53,2.50
2011,12,02,17,54,2.50
2011,12,02,17,55,2.40
2011,12,02,17,56,2.40
2011,12,02,17,57,2.30
2011,12,02,17,58,2.30
2011,12,02,17,59,2.30
2011,12,02,18,00,2.20
2011,12,02,18,01,2.20
2011,12,02,18,02,2.20
2011,12,02,18,03,2.20
2011,12,02,18,04,2.20
2011,12,02,18,05,2.20
2011,12,02,18,06,2.20